Regional Weather Roundup
Issued by NWS State College, PA

Current Version | Previous Version | Text Only | Print | Product List | Glossary On
Versions: 1 2 3 4 5 6 7 8 9 10 11 12 13 14 15 16 17 18 19 20 21 22 23 24 25 26 27 28 29 30 31 32 33 34 35 36 37 38 39 40 41 42 43 44 45 46 47 48 49 50
000
ASUS41 KCTP 061710
RWRCTP

REGIONAL WEATHER ROUNDUP
NATIONAL WEATHER SERVICE STATE COLLEGE PA
1200 PM EST FRI MAR 06 2015

Note: "fair" indicates few or no clouds below 12,000 feet with no
significant weather and/or obstructions to visibility.

* = STATION THAT DOES NOT REPORT PRECIPITATION /E.G. RAIN...SNOW...ETC/
    THUNDER OR FOG.

PAZ002>004-007>009-013>016-020>023-029>032-061800-
WESTERN PENNSYLVANIA

CITY           SKY/WX    TMP DP  RH WIND       PRES   REMARKS
ERIE           SUNNY     20   4  50 S15       30.48F WCI   6
MEADVILLE      SUNNY     16   2  54 SW12      30.43F WCI   3
FRANKLIN*      SUNNY     18   1  49 S5        30.44F WCI  11
NEW CASTLE     FAIR      18   3  51 VRB5      30.50S WCI  11
BEAVER COUNTY  SUNNY     19   3  49 S5        30.48S WCI  13
BUTLER*        SUNNY     19   3  49 SW5       30.49S WCI  13
PITTSBURGH INT MOSUNNY   17   4  56 VRB5      30.49S WCI  10
PITTSBURGH     SUNNY     15   2  56 SE8       30.48F WCI   4
INDIANA*       SUNNY     14   5  67 W5        30.50F WCI   6
LATROBE        SUNNY     18   7  62 CALM      30.51F
WASHINGTON CO* SUNNY     18   5  57 CALM      30.51S
$$

PAZ004>006-010>012-017>019-024>028-033>037-041-042-045-046-049>053-061800-
CENTRAL PENNSYLVANIA

CITY           SKY/WX    TMP DP  RH WIND       PRES   REMARKS
BRADFORD       SUNNY     14  -4  44 S9        30.35F WCI   2
DUBOIS         SUNNY     13   2  61 SW6       30.40F WCI   4
CLEARFIELD     MIX PCPN  14   1  56 SW3       30.44F
JOHNSTOWN      SUNNY     14   1  56 CALM      30.36F
ALTOONA        SUNNY     14   1  56 CALM      30.45F
STATE COLLEGE  SUNNY     14   1  57 S8        30.46  WCI   3
WILLIAMSPORT   SUNNY     17  -1  45 SW3       30.52F
SELINSGROVE    SUNNY     17   2  51 CALM      30.55F
FT INDIANTOWN  SUNNY     17   2  53 S6        30.54F WCI   8
CAPITAL CITY   SUNNY     17   2  51 VRB6      30.57F WCI   9
HARRISBURG     SUNNY     17   1  49 W3        30.57F
YORK           SUNNY     15   2  56 VRB5      30.55F WCI   8
$$

PAZ038>040-043-044-047-048-054-055-060>062-067>071-061800-
EASTERN PENNSYLVANIA

CITY           SKY/WX    TMP DP  RH WIND       PRES   REMARKS
SCRANTON       SUNNY     17   1  49 CALM      30.46F
MOUNT POCONO   MIX PCPN  17  -3  41 NW8       30.37R WCI   7
ALLENTOWN      SUNNY     19   2  47 SW6       30.53F WCI  11
QUAKERTOWN*    SUNNY     19   5  53 N5        30.53S WCI  13
READING        SUNNY     18   3  52 CALM      30.55F
LANCASTER      SUNNY     16   3  56 W6        30.55F WCI   7
COATESVILLE    SUNNY     18   7  62 W6        30.52F WCI   9
POTTSTOWN      SUNNY     19   2  47 CALM      30.56F
BLUE BELL      SUNNY     21   9  58 CALM      30.54S
DOYLESTOWN     SUNNY     18   5  57 VRB6      30.53S WCI  10
WILLOW GROVE   NOT AVBL
NORTH PHILA    SUNNY     23  13  65 N6        30.57F
PHILADELPHIA   SUNNY     21   7  54 VRB7      30.57F WCI  12
$$



USA.gov is the U.S. government's official web portal to all federal, state and local government web resources and services.